| time (UTC) | temp F | wind direction | speed MPH | gust MPH | rain 1hr in | rain 24hr in | rain mn in | humidity % | barometer mb |
| 20260505224326 | 73 | 268 | 24.0 | 30.0 | 0.00 | 0.00 | 0.00 | 28 | 1009.8 |
| 20260505223818 | 73 | 275 | 23.0 | 30.0 | 0.00 | 0.00 | 0.00 | 28 | 1009.8 |
| 20260505223328 | 73 | 243 | 20.0 | 30.0 | 0.00 | 0.00 | 0.00 | 30 | 1009.8 |
| 20260505222820 | 72 | 267 | 22.0 | 33.0 | 0.00 | 0.00 | 0.00 | 28 | 1009.9 |
| 20260505222331 | 72 | 257 | 25.0 | 33.0 | 0.00 | 0.00 | 0.00 | 28 | 1009.9 |
| 20260505221823 | 72 | 262 | 23.0 | 32.0 | 0.00 | 0.00 | 0.00 | 28 | 1010.0 |
| 20260505221315 | 73 | 246 | 22.0 | 30.0 | 0.00 | 0.00 | 0.00 | 28 | 1010.1 |
| 20260505220848 | 73 | 266 | 23.0 | 29.0 | 0.00 | 0.00 | 0.00 | 27 | 1010.2 |
| 20260505220320 | 73 | 248 | 23.0 | 31.0 | 0.00 | 0.00 | 0.00 | 29 | 1010.3 |
| 20260505215813 | 73 | 265 | 24.0 | 31.0 | 0.00 | 0.00 | 0.00 | 28 | 1010.3 |
| 20260505215325 | 73 | 275 | 24.0 | 33.0 | 0.00 | 0.00 | 0.00 | 29 | 1010.4 |
| 20260505214818 | 73 | 232 | 24.0 | 33.0 | 0.00 | 0.00 | 0.00 | 27 | 1010.4 |
| 20260505214329 | 73 | 259 | 24.0 | 30.0 | 0.00 | 0.00 | 0.00 | 29 | 1010.4 |
| 20260505213822 | 72 | 256 | 22.0 | 29.0 | 0.00 | 0.00 | 0.00 | 29 | 1010.5 |
| 20260505213332 | 72 | 236 | 19.0 | 29.0 | 0.00 | 0.00 | 0.00 | 28 | 1010.6 |
| 20260505212825 | 73 | 239 | 24.0 | 30.0 | 0.00 | 0.00 | 0.00 | 27 | 1010.6 |
| 20260505212315 | 73 | 270 | 21.0 | 28.0 | 0.00 | 0.00 | 0.00 | 29 | 1010.7 |
| 20260505211831 | 73 | 300 | 21.0 | 30.0 | 0.00 | 0.00 | 0.00 | 28 | 1010.7 |
| 20260505211321 | 73 | 273 | 22.0 | 33.0 | 0.00 | 0.00 | 0.00 | 29 | 1010.9 |
| 20260505210813 | 72 | 251 | 25.0 | 33.0 | 0.00 | 0.00 | 0.00 | 28 | 1011.0 |
| 20260505210324 | 72 | 257 | 27.0 | 33.0 | 0.00 | 0.00 | 0.00 | 27 | 1011.0 |
| 20260505205814 | 72 | 242 | 20.0 | 30.0 | 0.00 | 0.00 | 0.00 | 30 | 1011.0 |
| 20260505205326 | 71 | 261 | 21.0 | 32.0 | 0.00 | 0.00 | 0.00 | 29 | 1011.0 |
| 20260505204839 | 72 | 269 | 23.0 | 34.0 | 0.00 | 0.00 | 0.00 | 30 | 1011.1 |
| 20260505204328 | 72 | 258 | 23.0 | 31.0 | 0.00 | 0.00 | 0.00 | 28 | 1011.0 |
| 20260505203820 | 72 | 275 | 22.0 | 29.0 | 0.00 | 0.00 | 0.00 | 29 | 1011.1 |
| 20260505203351 | 72 | 265 | 21.0 | 29.0 | 0.00 | 0.00 | 0.00 | 29 | 1011.1 |
| 20260505202843 | 72 | 242 | 21.0 | 28.0 | 0.00 | 0.00 | 0.00 | 29 | 1011.1 |
| 20260505202317 | 71 | 298 | 18.0 | 28.0 | 0.00 | 0.00 | 0.00 | 31 | 1011.1 |
| 20260505201850 | 70 | 263 | 22.0 | 28.0 | 0.00 | 0.00 | 0.00 | 31 | 1011.1 |
| 20260505201320 | 70 | 230 | 18.0 | 26.0 | 0.00 | 0.00 | 0.00 | 31 | 1011.2 |
| 20260505200814 | 70 | 246 | 18.0 | 26.0 | 0.00 | 0.00 | 0.00 | 31 | 1011.3 |
| 20260505200326 | 71 | 250 | 19.0 | 26.0 | 0.00 | 0.00 | 0.00 | 31 | 1011.2 |
| 20260505195814 | 72 | 271 | 21.0 | 27.0 | 0.00 | 0.00 | 0.00 | 30 | 1011.2 |
| 20260505195323 | 72 | 273 | 15.0 | 30.0 | 0.00 | 0.00 | 0.00 | 32 | 1011.4 |
| 20260505194835 | 72 | 246 | 19.0 | 24.0 | 0.00 | 0.00 | 0.00 | 31 | 1011.3 |
| 20260505194326 | 72 | 279 | 16.0 | 25.0 | 0.00 | 0.00 | 0.00 | 31 | 1011.6 |
| 20260505193818 | 72 | 236 | 16.0 | 25.0 | 0.00 | 0.00 | 0.00 | 32 | 1011.6 |
| 20260505193328 | 71 | 280 | 17.0 | 23.0 | 0.00 | 0.00 | 0.00 | 33 | 1011.6 |
| 20260505192822 | 71 | 348 | 14.0 | 24.0 | 0.00 | 0.00 | 0.00 | 32 | 1011.7 |
| 20260505192353 | 70 | 220 | 18.0 | 24.0 | 0.00 | 0.00 | 0.00 | 34 | 1011.7 |
| 20260505191843 | 70 | 228 | 14.0 | 24.0 | 0.00 | 0.00 | 0.00 | 34 | 1011.7 |
| 20260505191331 | 70 | 244 | 17.0 | 24.0 | 0.00 | 0.00 | 0.00 | 35 | 1011.7 |
| 20260505190844 | 69 | 260 | 9.0 | 19.0 | 0.00 | 0.00 | 0.00 | 35 | 1011.8 |
| 20260505190314 | 70 | 261 | 5.0 | 17.0 | 0.00 | 0.00 | 0.00 | 35 | 1011.8 |
| 20260505185824 | 69 | 219 | 4.0 | 20.0 | 0.00 | 0.00 | 0.00 | 36 | 1011.8 |
| 20260505185315 | 69 | 236 | 12.0 | 20.0 | 0.00 | 0.00 | 0.00 | 36 | 1011.8 |
| 20260505184826 | 68 | 267 | 11.0 | 17.0 | 0.00 | 0.00 | 0.00 | 37 | 1011.8 |
| 20260505184317 | 68 | 229 | 10.0 | 21.0 | 0.00 | 0.00 | 0.00 | 37 | 1011.9 |
| 20260505183851 | 68 | 261 | 15.0 | 23.0 | 0.00 | 0.00 | 0.00 | 37 | 1011.9 |
| 20260505183322 | 67 | 287 | 12.0 | 22.0 | 0.00 | 0.00 | 0.00 | 39 | 1011.9 |
| 20260505182817 | 68 | 257 | 14.0 | 26.0 | 0.00 | 0.00 | 0.00 | 38 | 1011.9 |
| 20260505182329 | 68 | 281 | 18.0 | 26.0 | 0.00 | 0.00 | 0.00 | 38 | 1011.9 |
| 20260505181822 | 68 | 289 | 16.0 | 25.0 | 0.00 | 0.00 | 0.00 | 39 | 1011.9 |
| 20260505181353 | 68 | 245 | 16.0 | 27.0 | 0.00 | 0.00 | 0.00 | 38 | 1011.9 |
| 20260505180824 | 67 | 267 | 14.0 | 20.0 | 0.00 | 0.00 | 0.00 | 40 | 1011.9 |
| 20260505180314 | 67 | 246 | 12.0 | 20.0 | 0.00 | 0.00 | 0.00 | 40 | 1011.9 |
| 20260505175825 | 68 | 338 | 16.0 | 20.0 | 0.00 | 0.00 | 0.00 | 40 | 1011.9 |
| 20260505175336 | 67 | 244 | 9.0 | 23.0 | 0.00 | 0.00 | 0.00 | 41 | 1011.8 |
| 20260505174825 | 67 | 266 | 16.0 | 23.0 | 0.00 | 0.00 | 0.00 | 40 | 1011.8 |
| 20260505174315 | 67 | 271 | 13.0 | 21.0 | 0.00 | 0.00 | 0.00 | 41 | 1011.7 |
| 20260505173831 | 67 | 263 | 15.0 | 23.0 | 0.00 | 0.00 | 0.00 | 42 | 1011.7 |
| 20260505173323 | 66 | 278 | 15.0 | 23.0 | 0.00 | 0.00 | 0.00 | 42 | 1011.8 |
| 20260505172816 | 66 | 248 | 11.0 | 20.0 | 0.00 | 0.00 | 0.00 | 43 | 1011.7 |
| 20260505172328 | 66 | 251 | 15.0 | 24.0 | 0.00 | 0.00 | 0.00 | 44 | 1011.7 |
| 20260505171819 | 66 | 275 | 13.0 | 24.0 | 0.00 | 0.00 | 0.00 | 43 | 1011.7 |
| 20260505171329 | 66 | 258 | 17.0 | 22.0 | 0.00 | 0.00 | 0.00 | 44 | 1011.7 |
| 20260505170821 | 66 | 261 | 17.0 | 25.0 | 0.00 | 0.00 | 0.00 | 44 | 1011.7 |
| 20260505170332 | 66 | 249 | 20.0 | 27.0 | 0.00 | 0.00 | 0.00 | 45 | 1011.7 |
| 20260505165820 | 65 | 260 | 21.0 | 27.0 | 0.00 | 0.00 | 0.00 | 45 | 1011.7 |
| 20260505165316 | 66 | 256 | 18.0 | 27.0 | 0.00 | 0.00 | 0.00 | 46 | 1011.8 |
| 20260505164829 | 66 | 254 | 18.0 | 25.0 | 0.00 | 0.00 | 0.00 | 45 | 1011.7 |
| 20260505164321 | 65 | 293 | 16.0 | 25.0 | 0.00 | 0.00 | 0.00 | 46 | 1011.7 |
| 20260505163813 | 65 | 264 | 16.0 | 26.0 | 0.00 | 0.00 | 0.00 | 49 | 1011.6 |
| 20260505163346 | 64 | 259 | 19.0 | 28.0 | 0.00 | 0.00 | 0.00 | 48 | 1011.5 |
| 20260505162818 | 64 | 249 | 21.0 | 28.0 | 0.00 | 0.00 | 0.00 | 48 | 1011.3 |
| 20260505162330 | 65 | 249 | 18.0 | 26.0 | 0.00 | 0.00 | 0.00 | 49 | 1011.4 |
| 20260505161843 | 64 | 242 | 19.0 | 31.0 | 0.00 | 0.00 | 0.00 | 50 | 1011.3 |
| 20260505161314 | 63 | 255 | 20.0 | 30.0 | 0.00 | 0.00 | 0.00 | 50 | 1011.2 |
| 20260505160826 | 63 | 262 | 20.0 | 27.0 | 0.00 | 0.00 | 0.00 | 52 | 1011.1 |
| 20260505160321 | 63 | 262 | 20.0 | 28.0 | 0.00 | 0.00 | 0.00 | 52 | 1011.1 |
| 20260505153331 | 63 | 257 | 17.0 | 24.0 | 0.00 | 0.00 | 0.00 | 51 | 1010.9 |
| 20260505152825 | 62 | 240 | 13.0 | 22.0 | 0.00 | 0.00 | 0.00 | 52 | 1010.9 |
| 20260505152336 | 62 | 263 | 17.0 | 22.0 | 0.00 | 0.00 | 0.00 | 51 | 1011.0 |
| 20260505151814 | 62 | 258 | 15.0 | 19.0 | 0.00 | 0.00 | 0.00 | 51 | 1010.9 |
| 20260505151325 | 62 | 265 | 15.0 | 24.0 | 0.00 | 0.00 | 0.00 | 51 | 1010.8 |
| 20260505150818 | 62 | 265 | 19.0 | 23.0 | 0.00 | 0.00 | 0.00 | 51 | 1010.7 |
| 20260505150329 | 62 | 265 | 18.0 | 24.0 | 0.00 | 0.00 | 0.00 | 51 | 1010.7 |
| 20260505140327 | 59 | 271 | 16.0 | 23.0 | 0.00 | 0.00 | 0.00 | 55 | 1010.4 |
| 20260505124814 | 56 | 310 | 11.0 | 19.0 | 0.00 | 0.00 | 0.00 | 62 | 1010.0 |
| 20260505124326 | 56 | 278 | 10.0 | 14.0 | 0.00 | 0.00 | 0.00 | 63 | 1010.0 |
| 20260505123818 | 56 | 296 | 10.0 | 13.0 | 0.00 | 0.00 | 0.00 | 63 | 1010.0 |
| 20260505123350 | 56 | 284 | 9.0 | 15.0 | 0.00 | 0.00 | 0.00 | 63 | 1010.1 |
| 20260505122822 | 56 | 305 | 10.0 | 15.0 | 0.00 | 0.00 | 0.00 | 63 | 1010.1 |
| 20260505122314 | 56 | 296 | 10.0 | 13.0 | 0.00 | 0.00 | 0.00 | 63 | 1010.1 |
| 20260505121827 | 56 | 318 | 11.0 | 16.0 | 0.00 | 0.00 | 0.00 | 63 | 1010.1 |
| 20260505121338 | 56 | 317 | 11.0 | 18.0 | 0.00 | 0.00 | 0.00 | 62 | 1010.2 |
| 20260505120828 | 56 | 315 | 13.0 | 20.0 | 0.00 | 0.00 | 0.00 | 62 | 1010.1 |
| 20260505120323 | 56 | 284 | 14.0 | 20.0 | 0.00 | 0.00 | 0.00 | 62 | 1010.2 |
| 20260505115814 | 57 | 313 | 14.0 | 20.0 | 0.00 | 0.00 | 0.00 | 62 | 1010.2 |
| 20260505115325 | 57 | 300 | 16.0 | 20.0 | 0.00 | 0.00 | 0.00 | 62 | 1010.2 |
| 20260505114816 | 57 | 296 | 15.0 | 20.0 | 0.00 | 0.00 | 0.00 | 62 | 1010.1 |
| 20260505114327 | 57 | 270 | 11.0 | 20.0 | 0.00 | 0.00 | 0.00 | 62 | 1010.2 |
| 20260505113820 | 57 | 300 | 16.0 | 20.0 | 0.00 | 0.00 | 0.00 | 61 | 1010.3 |
| 20260505113330 | 57 | 292 | 14.0 | 20.0 | 0.00 | 0.00 | 0.00 | 61 | 1010.2 |
| 20260505112823 | 58 | 296 | 15.0 | 20.0 | 0.00 | 0.00 | 0.00 | 59 | 1010.2 |
| 20260505112318 | 58 | 286 | 16.0 | 20.0 | 0.00 | 0.00 | 0.00 | 59 | 1010.1 |
| 20260505111831 | 58 | 288 | 13.0 | 23.0 | 0.00 | 0.00 | 0.00 | 59 | 1010.1 |
| 20260505111323 | 58 | 305 | 17.0 | 26.0 | 0.00 | 0.00 | 0.00 | 59 | 1010.0 |
| 20260505110816 | 57 | 317 | 19.0 | 25.0 | 0.00 | 0.00 | 0.00 | 61 | 1009.8 |
| 20260505110328 | 57 | 292 | 18.0 | 23.0 | 0.00 | 0.00 | 0.00 | 62 | 1009.7 |
| 20260505101828 | 57 | 293 | 16.0 | 20.0 | 0.00 | 0.00 | 0.00 | 62 | 1010.4 |
| 20260505101321 | 57 | 282 | 12.0 | 19.0 | 0.00 | 0.00 | 0.00 | 62 | 1010.3 |
| 20260505100813 | 58 | 284 | 13.0 | 24.0 | 0.00 | 0.00 | 0.00 | 61 | 1010.3 |
| 20260505100325 | 58 | 273 | 17.0 | 25.0 | 0.00 | 0.00 | 0.00 | 61 | 1010.1 |
| 20260505095814 | 58 | 271 | 19.0 | 25.0 | 0.00 | 0.00 | 0.00 | 60 | 1010.1 |
| 20260505095329 | 58 | 259 | 16.0 | 24.0 | 0.00 | 0.00 | 0.00 | 60 | 1010.1 |
| 20260505094822 | 58 | 274 | 18.0 | 24.0 | 0.00 | 0.00 | 0.00 | 60 | 1010.1 |
| 20260505094314 | 58 | 304 | 17.0 | 22.0 | 0.00 | 0.00 | 0.00 | 59 | 1010.1 |
| 20260505093826 | 58 | 290 | 14.0 | 24.0 | 0.00 | 0.00 | 0.00 | 58 | 1010.1 |
| 20260505093336 | 59 | 276 | 18.0 | 25.0 | 0.00 | 0.00 | 0.00 | 58 | 1010.3 |
| 20260505092827 | 59 | 267 | 21.0 | 25.0 | 0.00 | 0.00 | 0.00 | 58 | 1010.2 |
| 20260505092317 | 59 | 257 | 17.0 | 24.0 | 0.00 | 0.00 | 0.00 | 58 | 1010.2 |
| 20260505091830 | 59 | 252 | 19.0 | 27.0 | 0.00 | 0.00 | 0.00 | 58 | 1010.3 |
| 20260505091320 | 59 | 289 | 22.0 | 29.0 | 0.00 | 0.00 | 0.00 | 58 | 1010.3 |
| 20260505090818 | 59 | 281 | 20.0 | 29.0 | 0.00 | 0.00 | 0.00 | 58 | 1010.4 |
| 20260505090347 | 59 | 273 | 18.0 | 28.0 | 0.00 | 0.00 | 0.00 | 57 | 1010.4 |
| 20260505085816 | 59 | 275 | 16.0 | 21.0 | 0.00 | 0.00 | 0.00 | 57 | 1010.4 |
| 20260505085326 | 58 | 263 | 14.0 | 19.0 | 0.00 | 0.00 | 0.00 | 58 | 1010.4 |
| 20260505084839 | 58 | 250 | 11.0 | 22.0 | 0.00 | 0.00 | 0.00 | 58 | 1010.4 |
| 20260505084348 | 59 | 269 | 14.0 | 22.0 | 0.00 | 0.00 | 0.00 | 58 | 1010.5 |
| 20260505083820 | 59 | 280 | 13.0 | 22.0 | 0.00 | 0.00 | 0.00 | 58 | 1010.6 |
| 20260505083331 | 59 | 252 | 17.0 | 22.0 | 0.00 | 0.00 | 0.00 | 58 | 1010.6 |
| 20260505082846 | 59 | 260 | 14.0 | 24.0 | 0.00 | 0.00 | 0.00 | 57 | 1010.5 |
| 20260505082316 | 59 | 279 | 16.0 | 24.0 | 0.00 | 0.00 | 0.00 | 57 | 1010.5 |
| 20260505081829 | 59 | 280 | 12.0 | 21.0 | 0.00 | 0.00 | 0.00 | 58 | 1010.6 |
| 20260505081325 | 59 | 265 | 16.0 | 23.0 | 0.00 | 0.00 | 0.00 | 57 | 1010.6 |
| 20260505080838 | 59 | 273 | 16.0 | 26.0 | 0.00 | 0.00 | 0.00 | 57 | 1010.7 |
| 20260505080348 | 60 | 269 | 18.0 | 26.0 | 0.00 | 0.00 | 0.00 | 56 | 1010.7 |
| 20260505075837 | 60 | 280 | 17.0 | 24.0 | 0.00 | 0.00 | 0.00 | 55 | 1010.7 |
| 20260505075328 | 60 | 265 | 16.0 | 23.0 | 0.00 | 0.00 | 0.00 | 55 | 1010.7 |
| 20260505074821 | 60 | 275 | 15.0 | 25.0 | 0.00 | 0.00 | 0.00 | 55 | 1010.7 |
| 20260505074313 | 60 | 286 | 19.0 | 27.0 | 0.00 | 0.00 | 0.00 | 55 | 1010.6 |
| 20260505073826 | 60 | 285 | 19.0 | 27.0 | 0.00 | 0.00 | 0.00 | 55 | 1010.7 |
| 20260505073316 | 60 | 290 | 15.0 | 28.0 | 0.00 | 0.00 | 0.00 | 55 | 1010.6 |
| 20260505072848 | 60 | 288 | 18.0 | 28.0 | 0.00 | 0.00 | 0.00 | 55 | 1010.5 |
| 20260505072318 | 60 | 257 | 19.0 | 28.0 | 0.00 | 0.00 | 0.00 | 56 | 1010.6 |
| 20260505071814 | 60 | 296 | 17.0 | 26.0 | 0.00 | 0.00 | 0.00 | 56 | 1010.6 |
| 20260505071345 | 60 | 288 | 18.0 | 30.0 | 0.00 | 0.00 | 0.00 | 55 | 1010.7 |
| 20260505070816 | 60 | 305 | 18.0 | 29.0 | 0.00 | 0.00 | 0.00 | 56 | 1010.6 |
| 20260505070327 | 59 | 325 | 19.0 | 29.0 | 0.00 | 0.00 | 0.00 | 57 | 1010.5 |
| 20260505065817 | 59 | 324 | 17.0 | 33.0 | 0.00 | 0.00 | 0.00 | 57 | 1010.6 |
| 20260505065327 | 60 | 318 | 20.0 | 33.0 | 0.00 | 0.00 | 0.00 | 57 | 1010.7 |
| 20260505064840 | 60 | 299 | 23.0 | 29.0 | 0.00 | 0.00 | 0.00 | 56 | 1010.6 |
| 20260505064330 | 60 | 292 | 20.0 | 29.0 | 0.00 | 0.00 | 0.00 | 56 | 1010.7 |
| 20260505063822 | 60 | 303 | 18.0 | 25.0 | 0.00 | 0.00 | 0.00 | 56 | 1010.6 |
| 20260505063317 | 60 | 304 | 17.0 | 26.0 | 0.00 | 0.00 | 0.00 | 55 | 1010.7 |
| 20260505062829 | 60 | 326 | 17.0 | 26.0 | 0.00 | 0.00 | 0.00 | 55 | 1010.8 |
| 20260505062320 | 60 | 322 | 15.0 | 23.0 | 0.00 | 0.00 | 0.00 | 55 | 1010.9 |
| 20260505061853 | 60 | 302 | 18.0 | 23.0 | 0.00 | 0.00 | 0.00 | 54 | 1010.9 |
| 20260505061323 | 60 | 307 | 15.0 | 25.0 | 0.00 | 0.00 | 0.00 | 54 | 1010.8 |
| 20260505060816 | 60 | 301 | 19.0 | 25.0 | 0.00 | 0.00 | 0.00 | 54 | 1010.8 |
| 20260505060327 | 60 | 322 | 15.0 | 25.0 | 0.00 | 0.00 | 0.00 | 53 | 1010.8 |
| 20260505055837 | 60 | 314 | 14.0 | 23.0 | 0.00 | 0.00 | 0.00 | 53 | 1010.8 |
| 20260505055327 | 60 | 317 | 17.0 | 23.0 | 0.00 | 0.00 | 0.00 | 53 | 1010.9 |
| 20260505054819 | 60 | 333 | 12.0 | 23.0 | 0.00 | 0.00 | 0.00 | 53 | 1011.1 |
| 20260505054313 | 60 | 328 | 15.0 | 24.0 | 0.00 | 0.00 | 0.00 | 52 | 1011.0 |
| 20260505053825 | 60 | 310 | 17.0 | 26.0 | 0.00 | 0.00 | 0.00 | 53 | 1011.1 |
| 20260505053316 | 60 | 290 | 13.0 | 26.0 | 0.00 | 0.00 | 0.00 | 53 | 1011.2 |
| 20260505052828 | 61 | 296 | 16.0 | 24.0 | 0.00 | 0.00 | 0.00 | 53 | 1011.1 |
| 20260505052319 | 61 | 300 | 17.0 | 24.0 | 0.00 | 0.00 | 0.00 | 53 | 1011.0 |
| 20260505051831 | 61 | 277 | 15.0 | 25.0 | 0.00 | 0.00 | 0.00 | 52 | 1011.0 |
| 20260505051322 | 61 | 307 | 19.0 | 25.0 | 0.00 | 0.00 | 0.00 | 52 | 1011.1 |
| 20260505050834 | 61 | 319 | 17.0 | 22.0 | 0.00 | 0.00 | 0.00 | 52 | 1011.1 |
| 20260505050343 | 61 | 279 | 14.0 | 22.0 | 0.00 | 0.00 | 0.00 | 52 | 1011.2 |
| 20260505041342 | 62 | 279 | 18.0 | 24.0 | 0.00 | 0.00 | 0.00 | 51 | 1010.8 |
| 20260505040817 | 62 | 270 | 17.0 | 25.0 | 0.00 | 0.00 | 0.00 | 51 | 1010.7 |
| 20260505040329 | 62 | 311 | 19.0 | 29.0 | 0.00 | 0.00 | 0.00 | 51 | 1010.7 |
| 20260505035818 | 62 | 292 | 20.0 | 29.0 | 0.00 | 0.00 | 0.00 | 51 | 1010.8 |
| 20260505035348 | 62 | 297 | 18.0 | 30.0 | 0.00 | 0.00 | 0.00 | 50 | 1010.7 |
| 20260505034818 | 62 | 304 | 21.0 | 30.0 | 0.00 | 0.00 | 0.00 | 51 | 1010.6 |
| 20260505034329 | 62 | 294 | 19.0 | 26.0 | 0.00 | 0.00 | 0.00 | 50 | 1010.5 |
| 20260505033820 | 62 | 304 | 16.0 | 32.0 | 0.00 | 0.00 | 0.00 | 49 | 1010.3 |
| 20260505033351 | 62 | 271 | 23.0 | 33.0 | 0.00 | 0.00 | 0.00 | 49 | 1010.3 |
| 20260505032823 | 63 | 262 | 24.0 | 33.0 | 0.00 | 0.00 | 0.00 | 49 | 1010.3 |
| 20260505032314 | 63 | 281 | 16.0 | 25.0 | 0.00 | 0.00 | 0.00 | 49 | 1010.4 |
| 20260505031832 | 63 | 281 | 19.0 | 30.0 | 0.00 | 0.00 | 0.00 | 49 | 1010.3 |
| 20260505031322 | 63 | 288 | 22.0 | 30.0 | 0.00 | 0.00 | 0.00 | 49 | 1010.2 |
| 20260505030835 | 63 | 281 | 21.0 | 31.0 | 0.00 | 0.00 | 0.00 | 49 | 1010.2 |
| 20260505030345 | 63 | 271 | 21.0 | 30.0 | 0.00 | 0.00 | 0.00 | 49 | 1010.2 |
| 20260505025854 | 63 | 308 | 21.0 | 30.0 | 0.00 | 0.00 | 0.00 | 49 | 1010.2 |
| 20260505025345 | 63 | 265 | 22.0 | 30.0 | 0.00 | 0.00 | 0.00 | 49 | 1010.1 |
| 20260505024836 | 64 | 311 | 21.0 | 29.0 | 0.00 | 0.00 | 0.00 | 48 | 1010.0 |
| 20260505024325 | 64 | 277 | 23.0 | 30.0 | 0.00 | 0.00 | 0.00 | 47 | 1010.1 |
| 20260505023817 | 64 | 296 | 20.0 | 26.0 | 0.00 | 0.00 | 0.00 | 46 | 1010.1 |
| 20260505023328 | 64 | 247 | 17.0 | 28.0 | 0.00 | 0.00 | 0.00 | 45 | 1010.1 |
| 20260505022819 | 65 | 286 | 19.0 | 31.0 | 0.00 | 0.00 | 0.00 | 45 | 1010.0 |
| 20260505022330 | 65 | 284 | 21.0 | 31.0 | 0.00 | 0.00 | 0.00 | 44 | 1009.9 |
| 20260505021843 | 66 | 272 | 18.0 | 29.0 | 0.00 | 0.00 | 0.00 | 43 | 1009.9 |
| 20260505021316 | 66 | 285 | 24.0 | 33.0 | 0.00 | 0.00 | 0.00 | 43 | 1009.8 |
| 20260505020829 | 66 | 267 | 24.0 | 33.0 | 0.00 | 0.00 | 0.00 | 42 | 1009.9 |
| 20260505020339 | 66 | 295 | 24.0 | 32.0 | 0.00 | 0.00 | 0.00 | 41 | 1009.9 |
| 20260505015826 | 67 | 294 | 21.0 | 31.0 | 0.00 | 0.00 | 0.00 | 40 | 1009.9 |
| 20260505015316 | 67 | 288 | 20.0 | 37.0 | 0.00 | 0.00 | 0.00 | 40 | 1009.8 |
| 20260505014827 | 67 | 269 | 22.0 | 37.0 | 0.00 | 0.00 | 0.00 | 40 | 1009.6 |
| 20260505014319 | 68 | 259 | 18.0 | 29.0 | 0.00 | 0.00 | 0.00 | 38 | 1009.8 |
| 20260505013832 | 68 | 273 | 17.0 | 29.0 | 0.00 | 0.00 | 0.00 | 38 | 1009.9 |
| 20260505013322 | 68 | 289 | 18.0 | 33.0 | 0.00 | 0.00 | 0.00 | 37 | 1009.8 |
| 20260505012835 | 68 | 265 | 25.0 | 35.0 | 0.00 | 0.00 | 0.00 | 36 | 1009.8 |
| 20260505012325 | 69 | 265 | 26.0 | 35.0 | 0.00 | 0.00 | 0.00 | 35 | 1009.7 |
| 20260505011822 | 69 | 301 | 23.0 | 35.0 | 0.00 | 0.00 | 0.00 | 34 | 1009.8 |
| 20260505011332 | 69 | 288 | 27.0 | 35.0 | 0.00 | 0.00 | 0.00 | 34 | 1009.8 |
| 20260505010825 | 69 | 240 | 19.0 | 29.0 | 0.00 | 0.00 | 0.00 | 33 | 1009.9 |
| 20260505010316 | 70 | 254 | 19.0 | 33.0 | 0.00 | 0.00 | 0.00 | 32 | 1009.8 |
| 20260505005826 | 70 | 267 | 24.0 | 33.0 | 0.00 | 0.00 | 0.00 | 32 | 1009.8 |
| 20260505005316 | 70 | 269 | 22.0 | 30.0 | 0.00 | 0.00 | 0.00 | 32 | 1009.8 |
| 20260505004828 | 70 | 249 | 22.0 | 32.0 | 0.00 | 0.00 | 0.00 | 32 | 1009.8 |
| 20260505004320 | 70 | 259 | 22.0 | 32.0 | 0.00 | 0.00 | 0.00 | 32 | 1009.8 |
| 20260505003832 | 71 | 288 | 23.0 | 36.0 | 0.00 | 0.00 | 0.00 | 31 | 1009.8 |
| 20260505003327 | 71 | 275 | 26.0 | 36.0 | 0.00 | 0.00 | 0.00 | 31 | 1009.9 |
| 20260505002819 | 71 | 250 | 24.0 | 33.0 | 0.00 | 0.00 | 0.00 | 29 | 1009.8 |
| 20260505002329 | 71 | 264 | 20.0 | 32.0 | 0.00 | 0.00 | 0.00 | 30 | 1009.9 |
| 20260505001823 | 71 | 275 | 22.0 | 33.0 | 0.00 | 0.00 | 0.00 | 30 | 1009.9 |
| 20260505001314 | 71 | 258 | 19.0 | 33.0 | 0.00 | 0.00 | 0.00 | 31 | 1009.9 |
| 20260505000827 | 70 | 292 | 24.0 | 34.0 | 0.00 | 0.00 | 0.00 | 32 | 1010.0 |
| 20260505000339 | 70 | 260 | 25.0 | 34.0 | 0.00 | 0.00 | 0.00 | 32 | 1009.9 |
| 20260504235846 | 71 | 270 | 20.0 | 34.0 | 0.00 | 0.00 | 0.00 | 31 | 1010.0 |
| 20260504235315 | 71 | 257 | 23.0 | 34.0 | 0.00 | 0.00 | 0.00 | 31 | 1009.8 |
| 20260504234827 | 70 | 272 | 21.0 | 32.0 | 0.00 | 0.00 | 0.00 | 32 | 1009.7 |
| 20260504234322 | 70 | 267 | 17.0 | 32.0 | 0.00 | 0.00 | 0.00 | 33 | 1009.8 |
| 20260504233833 | 70 | 273 | 19.0 | 37.0 | 0.00 | 0.00 | 0.00 | 33 | 1009.7 |
| 20260504233323 | 70 | 267 | 25.0 | 37.0 | 0.00 | 0.00 | 0.00 | 33 | 1009.8 |
| 20260504232835 | 70 | 274 | 26.0 | 37.0 | 0.00 | 0.00 | 0.00 | 32 | 1009.8 |
| 20260504232344 | 71 | 260 | 28.0 | 37.0 | 0.00 | 0.00 | 0.00 | 32 | 1009.8 |
| 20260504231815 | 72 | 246 | 23.0 | 33.0 | 0.00 | 0.00 | 0.00 | 32 | 1009.8 |
| 20260504231326 | 72 | 285 | 25.0 | 37.0 | 0.00 | 0.00 | 0.00 | 31 | 1009.7 |
| 20260504230818 | 72 | 253 | 25.0 | 37.0 | 0.00 | 0.00 | 0.00 | 30 | 1009.8 |
| 20260504230329 | 73 | 272 | 24.0 | 33.0 | 0.00 | 0.00 | 0.00 | 30 | 1009.7 |
| 20260504225820 | 72 | 278 | 17.0 | 35.0 | 0.00 | 0.00 | 0.00 | 31 | 1009.8 |
| 20260504225331 | 72 | 244 | 24.0 | 35.0 | 0.00 | 0.00 | 0.00 | 30 | 1009.7 |
| 20260504224828 | 72 | 291 | 24.0 | 39.0 | 0.00 | 0.00 | 0.00 | 31 | 1009.9 |